Regional Weather Roundup
Issued by NWS Bismarck, ND

Home | Current Version | Previous Version | Text Only | Print | Product List | Glossary On
Versions: 1 2 3 4 5 6 7 8 9 10 11 12 13 14 15 16 17 18 19 20 21 22 23 24 25 26 27 28 29 30 31 32 33 34 35 36 37 38 39 40 41 42 43 44 45 46 47 48 49 50
000
ASUS43 KBIS 060710
RWRBIS

NWR BROADCAST TEXT
NATIONAL WEATHER SERVICE BISMARCK ND
100 AM CST SAT FEB 06 2016

NOTE: "FAIR" INDICATES FEW OR NO CLOUDS BELOW 12,000 FEET WITH NO
SIGNIFICANT WEATHER AND/OR OBSTRUCTIONS TO VISIBILITY.


CITY           SKY/WX    TMP DP  RH WIND       PRES   REMARKS
WILLISTON      CLEAR     29  24  82 SW12      29.89F WCI  19
MINOT          CLOUDY    33  21  61 SW13      29.88F
MINOT AFB      CLOUDY    27  25  91 CALM      29.87F
BISMARCK       CLOUDY    24  19  81 CALM      29.99F
DICKINSON      CLOUDY    31  21  66 SW17      29.94F WCI  19
GARRISON         N/A     22  19  89 S5        29.92F WCI  16
HETTINGER ARPT CLOUDY    25  18  74 W7        30.03F WCI  17
JAMESTOWN      PTCLDY    24  19  81 S7        29.98F WCI  16
BEACH          FAIR      32  23  69 SW16G23   29.98F
CARRINGTON     FAIR      28  28 100 SW10      29.97F WCI  19
HAZEN          FAIR      23  19  86 W5        29.96F WCI  17
LINTON         FAIR      19  19 100 S3        30.04F
MANDAN         FAIR      28  23  80 SW12      29.98F WCI  18
OAKES          FAIR      21  19  93 S12       30.06F WCI   9
RUGBY          FAIR      28  25  86 S8        29.90F
STANLEY        FAIR      25  25 100 S5        29.89F WCI  19
TIOGA          FAIR      27  27 100 CALM      29.91F
WATFORD CITY   FAIR      32  25  74 SW10      29.90F
$$

CITY           SKY/WX    TMP DP  RH WIND       PRES   REMARKS
GRAND FORKS    CLOUDY    22  17  81 S8        30.01F WCI  12
GRAND FORKS AF CLOUDY    22  17  83 S8        30.00F WCI  12
DEVILS LAKE    CLOUDY    23  20  88 S5        29.94F WCI  17
FARGO          CLOUDY    21  17  84 S9        30.06F WCI  11
CAVALIER       PTSUNNY   19  18  93 S6        29.98F WCI  11
GRAFTON        PTSUNNY   19  18  93 S6        30.01F WCI  11
GWINNER          N/A     21  19  93 SW10      30.06F WCI  10
LANGDON        PTSUNNY   18  14  86 S6        29.93F WCI   9
ROLLA          PTSUNNY   21  19  93 S5        29.90F WCI  15
WALHALLA       FAIR      21  21 100 S5        29.97F WCI  15
$$

CITY           SKY/WX    TMP DP  RH WIND       PRES   REMARKS
ABERDEEN       CLEAR     21  17  84 S7        30.10F WCI  12
MOBRIDGE       CLEAR     28  23  81 SE8       30.04F WCI  20
BUFFALO          N/A     31  20  63 W16       29.97F WCI  20
RAPID CITY     CLOUDY    24  15  68 CALM      30.11F
GLASGOW        CLOUDY    36  26  67 SW8       29.88F
SIDNEY         CLOUDY    30  21  69 S12       29.92S
WOLF POINT     CLOUDY    29  23  78 W7        29.90F
GLENDIVE       CLOUDY    36  25  64 SW13      29.97F
MILES CITY     CLOUDY    37  21  52 W12       30.01F
BAKER          CLOUDY    34  20  56 W14       30.00F
$$

CITY           SKY/WX    TMP DP  RH WIND       PRES   REMARKS
BILLINGS       CLOUDY    37  14  38 SW22G30   30.07S
GREAT FALLS    CLOUDY    44  21  40 SW32G41   29.98F
REGINA         CLOUDY    21  19  93 SE9       29.73F WCI  11
$$




USA.gov is the U.S. government's official web portal to all federal, state and local government web resources and services.